STARLINK-32520, 62021

Orbit data source: Space-Track

STARLINK-32520, 62021 is a payload satellite owned by SpaceX/Seattle (US) in LEO that was launched on Mon, 18 Nov 2024 UTC via an FALCON 9 launch vehicle from the Air Force Western Test Range (AFWTR). Payload-class satellites include a variety of spacecraft equipped with specific instruments for various scientific and technological missions. These include communications satellites like Starlink; space stations such as the ISS; scientific satellites like the Hubble; Earth observation satellites from companies like Planet Labs, Umbra, and HawkEye 360; GPS; miniature CubeSats for education and research; and military/defense satellites.

Loading next visibility...
Identifier
62021, 2024-213P
Orbit
LEO
Last TLE update
2 days ago
Origin
Manufacturer
SpaceX/Seattle
Mission
Operational Commercial Communications
Bus & Motor
STARLINK V2M, Unknown motor
Mass
730 kg wet, ~700 kg dry
Launch date (UTC)
2024-11-18 (5 months ago)
Launch vehicle
FALCON 9
Launch site
Air Force Western Test Range (AFWTR)
Object type
Payload
Rocket body
Debris
Shape & HBR
Box + 2 Pan, 29 m
Radar Cross Section
36.964 m², Large (>1 m²)

Expand to show TLE details & history

TLE from 2 days ago
0 STARLINK-32520
1 62021U 24213P   25118.89389128 -.00001494  00000-0 -38322-4 0  9990
2 62021  53.1600 190.6388 0001161  98.7388 261.3744 15.30199650 24951
Epoch: 2025-04-28T21:27Z
Definitive object data (Epoch: 2025-04-28T21:27:12.206Z)
Latitude
-0.00005°
Longitude
11.73653°
Altitude
476.235 km
Speed
7.629 km/s
True Right ascension
12h 42m 33s
True Declination
0° 00' 00"
Sunlit
Object was in full shadow at TLE epoch
Visualization TLE readout
Latitude
36.06855°
Longitude
34.85135°
Altitude
477.595 km
Speed
7.632 km/s
Apparent Right ascension
16h 38m 46s
Apparent Declination
0° 23' 20"
Sunlit
Object is in full shadow
Visualization observer readout
Local Sidereal Time
07:25:24
Azimuth
54.495° ENE
Elevation
-35.266°
Doppler factor
1
Orbital elements
Apogee altitude
476.268 km
Perigee altitude
474.677 km
Semi-major axis
6,853.61 km
Eccentricity
0.0001161
Inclination
53.16°
RAAN
190.6388°
Arg. of periapsis
98.7388°
True anomaly
261.36125°
Mean anomaly
261.3744°
Eccentric anomaly
261.36782°
Mean motion
3.82529 °/min
BSTAR
-0.000038322
Orbital period
94.11 mins
Loading maneuver chart data...
Loading SW <> Apogee altitude chart data...
Loading historical data...
Loading historical data...
Loading historical data...
Loading historical data...
Loading historical data...
Loading historical data...
Loading historical data...

STARLINK-32520 Visibility forecast

Observer location: undefined°, undefined°

Span
Click to sort rows by Start time (UTC) header in descending order
Start Az.
Max El. time (UTC)
Max El. Az.
Max El.
End time (UTC)
End Az.
6 mins2025-05-01 06:02:11.864Z190.194° SSW2025-05-01 06:05:11.864Z130.453° SE25.428°2025-05-01 06:08:11.864Z72.108° E
5 mins2025-05-01 07:41:11.864Z276.061° WNW2025-05-01 07:43:11.864Z336.01° NNW29.843°2025-05-01 07:46:11.864Z34.675° NE
4 mins2025-05-01 12:38:11.864Z344.82° N2025-05-01 12:40:11.864Z38.793° NE25.853°2025-05-01 12:42:11.864Z82.835° E
5 mins2025-05-01 14:16:11.864Z277.872° WNW2025-05-01 14:18:11.864Z213.127° SW30.551°2025-05-01 14:21:11.864Z158.916° S
|